SIRI09 UUEE-UMMS

Flight info

Callsign SIRI09
Flight time N/A
Altitude 30000
Route UUEE/24C LIDR3J LIDRI T781 REPNU N858 VEPIS T526 RUHAL RUHA2H
Aircraft B738/M-S/LB1

Departure

Time 2026-05-04 16:01
Airport Sheremetyevo International Airport (UUEE)

Arrival

Time N/A
Airport Minsk National Airport (UMMS)
Time Latitude Longitude Altitude Speed Heading
2026-05-04 15:30 55.97631 37.40490 621 ft 0 kts 164°
2026-05-04 15:41 55.97632 37.40490 621 ft 0 kts 187°
2026-05-04 15:42 55.97638 37.40491 621 ft 2 kts 172°
2026-05-04 15:42 55.97650 37.40483 621 ft 2 kts 142°
2026-05-04 15:42 55.97665 37.40458 621 ft 3 kts 131°
2026-05-04 15:42 55.97683 37.40411 620 ft 3 kts 113°
2026-05-04 15:43 55.97683 37.40409 620 ft 0 kts 112°
2026-05-04 15:51 55.97683 37.40411 620 ft 1 kts 110°
2026-05-04 15:51 55.97690 37.40466 621 ft 4 kts 54°
2026-05-04 15:51 55.97709 37.40543 622 ft 8 kts 97°
2026-05-04 15:51 55.97671 37.40592 622 ft 7 kts 162°
2026-05-04 15:52 55.97600 37.40634 620 ft 12 kts 143°
2026-05-04 15:52 55.97595 37.40774 620 ft 11 kts 81°
2026-05-04 15:52 55.97593 37.40904 620 ft 9 kts 78°
2026-05-04 15:52 55.97606 37.40992 620 ft 7 kts 75°
2026-05-04 15:53 55.97618 37.41084 622 ft 8 kts 90°
2026-05-04 15:53 55.97574 37.41146 622 ft 9 kts 162°
2026-05-04 15:53 55.97539 37.41251 622 ft 12 kts 77°
2026-05-04 15:53 55.97564 37.41420 620 ft 16 kts 75°
2026-05-04 15:54 55.97600 37.41658 619 ft 23 kts 74°
2026-05-04 15:54 55.97644 37.41960 615 ft 23 kts 75°
2026-05-04 15:54 55.97673 37.42139 612 ft 12 kts 78°
2026-05-04 15:54 55.97694 37.42297 612 ft 14 kts 75°
2026-05-04 15:55 55.97725 37.42500 610 ft 18 kts 75°
2026-05-04 15:55 55.97743 37.42623 609 ft 0 kts 76°
2026-05-04 15:56 55.97750 37.42671 608 ft 8 kts 75°
2026-05-04 15:57 55.97748 37.42762 607 ft 8 kts 128°
2026-05-04 15:57 55.97742 37.42773 607 ft 0 kts 141°
2026-05-04 15:57 55.97737 37.42779 607 ft 0 kts 147°
2026-05-04 15:58 55.97736 37.42780 607 ft 0 kts 148°
2026-05-04 15:59 55.97719 37.42794 606 ft 7 kts 159°
2026-05-04 15:59 55.97638 37.42824 605 ft 13 kts 184°
2026-05-04 15:59 55.97586 37.42733 607 ft 5 kts 252°
2026-05-04 15:59 55.97586 37.42732 607 ft 0 kts 252°
2026-05-04 16:00 55.97567 37.42614 607 ft 35 kts 255°
2026-05-04 16:00 55.97432 37.41713 617 ft 111 kts 255°
2026-05-04 16:00 55.97174 37.39983 625 ft 172 kts 255°
2026-05-04 16:01 55.96843 37.37760 973 ft 194 kts 255°
2026-05-04 16:01 55.96524 37.35398 1591 ft 199 kts 257°
2026-05-04 16:01 55.96154 37.33099 2175 ft 187 kts 236°
2026-05-04 16:01 55.95149 37.31750 2833 ft 185 kts 194°
2026-05-04 16:02 55.93880 37.31919 3476 ft 190 kts 152°
2026-05-04 16:02 55.92911 37.33578 4168 ft 204 kts 114°
2026-05-04 16:02 55.91025 37.37340 5630 ft 231 kts 173°
2026-05-04 16:03 55.89473 37.36836 6383 ft 234 kts 213°
2026-05-04 16:03 55.88456 37.34658 7131 ft 235 kts 253°
2026-05-04 16:03 55.88229 37.31809 7911 ft 236 kts 265°
2026-05-04 16:03 55.88109 37.28795 7727 ft 253 kts 266°
2026-05-04 16:04 55.87992 37.25734 7694 ft 236 kts 266°
2026-05-04 16:04 55.87763 37.19760 7705 ft 252 kts 266°
2026-05-04 16:04 55.87644 37.16678 7701 ft 251 kts 266°
2026-05-04 16:05 55.87511 37.13569 7752 ft 250 kts 263°
2026-05-04 16:05 55.87222 37.10539 7743 ft 251 kts 258°
2026-05-04 16:05 55.86495 37.04409 7703 ft 250 kts 258°
2026-05-04 16:06 55.86135 37.01385 7703 ft 250 kts 258°
2026-05-04 16:07 50.24791 57.21042 721 ft 0 kts 44°